Weather Roundup
Issued by NWS

Home | Current Version | Previous Version | Graphics & Text | Print | Product List | Glossary Off
Versions: 1 2 3 4 5 6 7 8 9 10 11 12 13 14 15 16 17 18 19 20 21 22 23 24 25 26 27 28 29 30 31 32 33 34 35 36 37 38 39 40 41 42 43 44 45 46 47 48 49 50

000
NZUS93 KARX 022310
HRRWXR

CURRENT HOURLY OBSERVATIONS ACROSS
MUCH OF THE UPPER MISSISSIPPI VALLEY
NATIONAL WEATHER SERVICE LA CROSSE WI
600 PM CDT TUE SEP 02 2014


...SOUTHEAST MINNESOTA...


CITY           SKY/WX    TMP DP  RH WIND       PRES   REMARKS
ROCHESTER      MOSUNNY   73  57  57 W6        29.93S
ROCHESTER/MAYO FAIR      75  53  45 W9G17     29.92S
WINONA         SUNNY     77  55  47 W5        29.89F
AUSTIN         SUNNY     73  55  53 W10G16    29.92F
ALBERT LEA     SUNNY     75  55  50 W6        29.92F
DODGE CENTER   SUNNY     73  57  56 W12       29.92F
PRESTON        SUNNY     71  61  71 CALM      29.93F
OWATONNA       SUNNY     75  57  53 SW8       29.91F
FARIBAULT      SUNNY     79  52  38 SW7       29.91S
$$

...ELSEWHERE IN MINNESOTA...


CITY           SKY/WX    TMP DP  RH WIND       PRES   REMARKS
MINNEAPOLIS    MOSUNNY   77  49  37 SW10      29.88S
INTNL FALLS    MOSUNNY   70  50  49 SW9       29.74S
DULUTH         PTSUNNY   65  51  60 N13G21    29.83R
RED WING       SUNNY     79  52  38 W8        29.88S
REDWOOD FALLS  MOSUNNY   77  54  44 SW14      29.88F
MANKATO        MOSUNNY   75  55  50 SW12      29.90F
WORTHINGTON    SUNNY     73  55  53 SW8       29.95F
FAIRMONT       MOSUNNY   75  54  46 SW10      29.92F
$$

...SOUTHWEST WISCONSIN...


CITY           SKY/WX    TMP DP  RH WIND       PRES   REMARKS
LA CROSSE      SUNNY     80  59  48 W7        29.88F
PRAIRIE DU CHI SUNNY     78  54  43 W9        29.90F
BOSCOBEL       SUNNY     79  57  46 VRB5      29.91S
LONE ROCK      SUNNY     80  57  45 NW8       29.90F
PLATTEVILLE    SUNNY     75  58  55 CALM      29.93S
FORT MC COY    SUNNY     76  55  48 W7        29.90F
CAMP DOUGLAS   MOSUNNY   72  63  73 W7        29.90S
VIROQUA        FAIR      74  57  55 W8        29.92F
WIS DELLS      SUNNY     77  53  42 W7        29.90S
$$

...ELSEWHERE IN WISCONSIN...


CITY           SKY/WX    TMP DP  RH WIND       PRES   REMARKS
MILWAUKEE      MOSUNNY   78  54  43 W9        29.89S
MADISON        MOSUNNY   77  55  46 VRB6      29.90F
GREEN BAY      SUNNY     75  60  59 W9        29.87S
EAU CLAIRE     MOSUNNY   75  53  46 W9        29.88S
BLACK RVR FLS  FAIR      77  52  42 W8        29.89S
MEDFORD        SUNNY     71  53  53 W7        29.90S
WAUSAU         SUNNY     74  53  48 W9        29.87F
WIS RAPIDS     SUNNY     76  55  48 W10       29.90F
MARSHFIELD     MOSUNNY   74  57  55 W8        29.89F
RICE LAKE      SUNNY     73  50  43 SW8       29.89S
$$

...NORTHEAST IOWA...


CITY           SKY/WX    TMP DP  RH WIND       PRES   REMARKS
WATERLOO       MOSUNNY   77  57  50 W7        29.92S
DUBUQUE        SUNNY     75  59  57 NW8       29.93F
DECORAH        SUNNY     75  57  53 VRB7G13   29.92S
MASON CITY     SUNNY     76  57  51 W10       29.94F
CHARLES CITY   SUNNY     75  57  53 W8G15     29.94S
OELWEIN        SUNNY     75  57  53 W9        29.94F
$$

...ELSEWHERE IN IOWA...


CITY           SKY/WX    TMP DP  RH WIND       PRES   REMARKS
DES MOINES     MOSUNNY   79  59  50 W8        29.92F
IOWA CITY      SUNNY     78  59  51 W9        29.92F
FORT DODGE     SUNNY     75  61  60 W8        29.95F
MARSHALLTOWN   SUNNY     77  58  51 W7        29.93F
CEDAR RAPIDS   MOSUNNY   77  59  53 NW9       29.92F
$$

...NORTHERN ILLINOIS...


CITY           SKY/WX    TMP DP  RH WIND       PRES   REMARKS
CHICAGO-OHARE  MOSUNNY   78  54  43 W12       29.89F
DUPAGE         MOSUNNY   79  58  48 W9        29.90F
CHICAGO-MIDWAY MOSUNNY   82  57  42 NW14      29.89S
MOLINE         SUNNY     80  60  50 W10       29.90F
ROCKFORD       MOSUNNY   79  60  52 NW10      29.91F
STERLING       MOSUNNY   79  63  57 NW7       29.91S
PEORIA         MOSUNNY   82  63  52 VRB5      29.92S
$$

NOTE: "FAIR" INDICATES FEW OR NO CLOUDS BELOW 12,000 FEET WITH NO
SIGNIFICANT WEATHER AND/OR OBSTRUCTIONS TO VISIBILITY. WIND
SPEEDS ARE IN MILES-PER-HOUR.



USA.gov is the U.S. government's official web portal to all federal, state and local government web resources and services.